BAW643 LGKR-EGLL

Flight info

Callsign BAW643
Flight time N/A
Altitude 36000
Route OLGAT2F OLGAT L53 OKIMO DCT AIOSA DCT IPKIS DCT ROTAR DCT SAFFA DCT ELMUR DCT RIPUS DCT DITON DCT HOC DCT LUL DCT RLP DCT ROTSI DCT KOTUN DCT NINAL DCT ABNUR DCT DIMAL DCT ALESO ALESO1H
Aircraft A21N/M-SDE3FGIJ1LRWXYZ/SB1G1

Departure

Time 2026-05-07 12:07
Airport Corfu Ioannis Kapodistrias International Airport (LGKR)

Arrival

Time N/A
Airport London Heathrow Airport (EGLL)
Time Latitude Longitude Altitude Speed Heading
2026-05-07 11:37 39.60742 19.91339 26 ft 0 kts 79°
2026-05-07 11:56 39.60740 19.91327 24 ft 4 kts 79°
2026-05-07 11:57 39.60736 19.91293 24 ft 4 kts 87°
2026-05-07 11:57 39.60739 19.91263 24 ft 4 kts 134°
2026-05-07 11:57 39.60746 19.91257 24 ft 0 kts 169°
2026-05-07 12:01 39.60738 19.91259 26 ft 3 kts 169°
2026-05-07 12:01 39.60715 19.91245 24 ft 5 kts 215°
2026-05-07 12:02 39.60676 19.91224 24 ft 8 kts 176°
2026-05-07 12:02 39.60616 19.91232 25 ft 10 kts 192°
2026-05-07 12:02 39.60553 19.91176 24 ft 12 kts 204°
2026-05-07 12:02 39.60469 19.91144 24 ft 14 kts 176°
2026-05-07 12:03 39.60368 19.91169 25 ft 16 kts 168°
2026-05-07 12:03 39.60250 19.91199 27 ft 18 kts 168°
2026-05-07 12:03 39.60118 19.91234 27 ft 20 kts 169°
2026-05-07 12:03 39.59978 19.91270 27 ft 21 kts 169°
2026-05-07 12:04 39.59830 19.91308 27 ft 22 kts 168°
2026-05-07 12:04 39.59676 19.91348 26 ft 23 kts 169°
2026-05-07 12:04 39.59516 19.91389 24 ft 24 kts 168°
2026-05-07 12:04 39.59350 19.91432 22 ft 25 kts 168°
2026-05-07 12:05 39.59228 19.91464 24 ft 12 kts 166°
2026-05-07 12:05 39.59175 19.91513 24 ft 9 kts 172°
2026-05-07 12:05 39.59165 19.91476 23 ft 3 kts 350°
2026-05-07 12:05 39.59189 19.91473 23 ft 4 kts 346°
2026-05-07 12:06 39.59198 19.91470 23 ft 0 kts 350°
2026-05-07 12:06 39.59233 19.91462 23 ft 30 kts 350°
2026-05-07 12:07 39.59714 19.91337 25 ft 108 kts 348°
2026-05-07 12:07 39.60662 19.91090 90 ft 158 kts 349°
2026-05-07 12:07 39.61722 19.90819 792 ft 154 kts 350°
2026-05-07 12:07 39.62787 19.90546 1403 ft 160 kts 349°
2026-05-07 12:08 39.63915 19.90248 1921 ft 173 kts 349°
2026-05-07 12:08 39.65127 19.89740 2357 ft 194 kts 328°
2026-05-07 12:08 39.66015 19.88381 2902 ft 207 kts 292°
2026-05-07 12:08 39.66208 19.86496 3505 ft 218 kts 267°
2026-05-07 12:09 39.66121 19.84521 4207 ft 225 kts 266°
2026-05-07 12:09 39.66050 19.82477 5001 ft 229 kts 267°
2026-05-07 12:09 39.66021 19.80395 5796 ft 233 kts 274°
2026-05-07 12:09 39.66493 19.78384 6460 ft 243 kts 303°
2026-05-07 12:10 39.67646 19.76657 6849 ft 264 kts 315°
2026-05-07 12:10 39.69001 19.74931 7352 ft 280 kts 315°
2026-05-07 12:10 39.70404 19.73127 8074 ft 286 kts 314°
2026-05-07 12:10 39.71810 19.71276 8830 ft 290 kts 314°
2026-05-07 12:11 39.73222 19.69381 9632 ft 294 kts 313°
2026-05-07 12:11 39.74654 19.67454 10365 ft 302 kts 313°
2026-05-07 12:11 39.76156 19.65414 10733 ft 323 kts 311°
2026-05-07 12:11 39.77749 19.63223 11037 ft 344 kts 311°
2026-05-07 12:12 39.79424 19.60919 11544 ft 355 kts 311°
2026-05-07 12:12 39.81140 19.58589 12288 ft 358 kts 311°
2026-05-07 12:12 39.82867 19.56241 13058 ft 360 kts 311°
2026-05-07 12:12 39.84636 19.53843 13774 ft 364 kts 311°
2026-05-07 12:13 39.86371 19.51486 14456 ft 367 kts 311°
2026-05-07 12:13 39.88157 19.49088 15123 ft 371 kts 311°
2026-05-07 12:13 39.89989 19.46633 15778 ft 374 kts 312°
2026-05-07 12:13 39.91824 19.44195 16406 ft 378 kts 312°
2026-05-07 12:14 39.93635 19.41770 17004 ft 381 kts 311°
2026-05-07 12:14 39.95487 19.39279 17584 ft 384 kts 311°
2026-05-07 12:14 39.97354 19.36764 18153 ft 387 kts 311°
2026-05-07 12:14 39.99233 19.34229 18698 ft 390 kts 311°
2026-05-07 12:15 40.01128 19.31671 19247 ft 393 kts 311°
2026-05-07 12:15 40.03037 19.29091 19757 ft 397 kts 311°
2026-05-07 12:15 40.04961 19.26488 20269 ft 400 kts 312°
2026-05-07 12:15 40.06900 19.23870 20772 ft 403 kts 312°
2026-05-07 12:16 40.08854 19.21229 21273 ft 406 kts 312°
2026-05-07 12:16 40.10800 19.18592 21758 ft 409 kts 312°
2026-05-07 12:16 40.12779 19.15907 22247 ft 412 kts 312°
2026-05-07 12:16 40.14776 19.13196 22726 ft 416 kts 312°
2026-05-07 12:17 40.16789 19.10461 23198 ft 418 kts 312°
2026-05-07 12:17 40.18811 19.07705 23637 ft 421 kts 312°
2026-05-07 12:17 40.20846 19.04933 24082 ft 424 kts 312°
2026-05-07 12:17 40.22896 19.02142 24498 ft 427 kts 312°
2026-05-07 12:18 40.24954 18.99331 24909 ft 429 kts 312°
2026-05-07 12:18 40.27022 18.96503 25321 ft 431 kts 312°
2026-05-07 12:18 40.29110 18.93655 25728 ft 434 kts 312°
2026-05-07 12:18 40.31210 18.90799 26125 ft 436 kts 312°
2026-05-07 12:19 40.33314 18.87928 26511 ft 437 kts 312°
2026-05-07 12:19 40.35425 18.85039 26878 ft 439 kts 312°
2026-05-07 12:19 40.37547 18.82145 27232 ft 441 kts 312°
2026-05-07 12:19 40.39681 18.79231 27569 ft 443 kts 312°
2026-05-07 12:20 40.41813 18.76307 27925 ft 445 kts 312°
2026-05-07 12:20 40.43952 18.73363 28256 ft 446 kts 311°
2026-05-07 12:20 40.46103 18.70403 28582 ft 448 kts 311°
2026-05-07 12:20 40.48226 18.67479 28903 ft 449 kts 311°
2026-05-07 12:21 40.50392 18.64504 29221 ft 450 kts 311°
2026-05-07 12:21 40.52552 18.61530 29612 ft 449 kts 311°
2026-05-07 12:21 40.54003 18.59525 29880 ft 447 kts 311°